Showing default

IRIDIUM 168, 43924

Orbit data source: Space-Track

IRIDIUM 168, 43924 is a payload satellite owned by Iridium (US) in LEO that was launched on Fri, 11 Jan 2019 UTC via an FALCON 9 launch vehicle from the Air Force Western Test Range (AFWTR). Payload-class satellites include a variety of spacecraft equipped with specific instruments for various scientific and technological missions. These include communications satellites like Starlink; space stations such as the ISS; scientific satellites like the Hubble; Earth observation satellites from companies like Planet Labs, Umbra, and HawkEye 360; GPS; miniature CubeSats for education and research; and military/defense satellites.

Loading next visibility...
Identifier
43924, 2019-002C
Orbit
LEO
Country
Flag of USUS
Related business
Manufacturer
NGIS SSG Gilbert
Mission
Operational Commercial Communications
Bus & Motor
ELITEBUS, Unknown motor
Mass
860 kg wet, 700 kg dry
Launch date (UTC)
2019-01-11 (7 years ago)
Launch vehicle
FALCON 9
Launch site
Air Force Western Test Range (AFWTR)
Object type
Payload
Rocket body
Debris
Shape & HBR
Trap Box + 2 Pan, 4.8 m
Radar Cross Section
10.154 m², Large (>1 m²)

Expand to show TLE details & history
Last TLE update: 12 hours ago

TLE from 12 hours ago
0 IRIDIUM 168
1 43924U 19002C   25302.89350629 -.00000059  00000-0 -28008-4 0  9996
2 43924  86.3933  89.9452 0002005  90.9590 269.1835 14.34216865355964
Epoch: 2025-10-29T21:26Z
TLE epoch observation values (Epoch: 2025-10-29T21:26:38.943Z)
Latitude
-0.00007°
Longitude
89.82282°
Altitude
780.742 km
Speed
7.463 km/s
True Right ascension
05h 59m 46s
True Declination
0° 00' 00"
Sunlit
Object was in full shadow at epoch
Visualization orbit readout
Latitude
Unknown
Longitude
Unknown
Altitude
Unknown
Speed
Unknown
Apparent Right ascension
Unknown
Apparent Declination
Unknown
Sunlit
N/A
Visualization observer readout
Local Sidereal Time
04:52:00
Azimuth
Unknown
Elevation
Unknown
Doppler factor
Unknown
Orbital elements
Apogee altitude
776.069 km
Perigee altitude
773.201 km
Semi-major axis
7,152.772 km
Eccentricity
0.0002
Inclination
86.3933°
RAAN
89.9452°
Arg. of periapsis
90.959°
True anomaly
269.16053°
Mean anomaly
269.1835°
Eccentric anomaly
269.17201°
Mean motion
3.58783 °/min
Orbital period
100.34 mins
BSTAR
-0.000028008
Loading maneuver chart data...
Computing Atmospheric mass density...
Loading historical data...
Loading historical data...
Loading historical data...
Loading historical data...
Loading historical data...
Loading historical data...
Loading historical data...

Documentation

Showing up to 5 results
|